TimeEDT,TemperatureF,Dew PointF,Humidity,Sea Level PressureIn,VisibilityMPH,Wind Direction,Wind SpeedMPH,Gust SpeedMPH,PrecipitationIn,Events,Conditions,WindDirDegrees,DateUTC
12:53 AM,72.0,69.1,91,30.08,8.0,SW,6.9,-,N/A,,Clear,230,2013-08-22 04:53:00
1:53 AM,71.1,69.1,93,30.09,7.0,SW,5.8,-,N/A,,Clear,220,2013-08-22 05:53:00
2:53 AM,72.0,69.1,91,30.09,6.0,SW,5.8,-,N/A,,Clear,230,2013-08-22 06:53:00
3:53 AM,71.1,69.1,93,30.07,5.0,WSW,5.8,-,N/A,,Clear,240,2013-08-22 07:53:00
4:53 AM,71.1,69.1,93,30.07,5.0,SW,4.6,-,N/A,,Clear,230,2013-08-22 08:53:00
5:53 AM,71.1,69.1,93,30.05,5.0,SSW,4.6,-,0.01,,Clear,210,2013-08-22 09:53:00
6:53 AM,72.0,70.0,93,30.04,5.0,SW,4.6,-,N/A,,Partly Cloudy,230,2013-08-22 10:53:00
7:53 AM,72.0,69.1,91,30.06,5.0,WSW,6.9,-,0.01,,Overcast,240,2013-08-22 11:53:00
8:21 AM,69.8,66.2,88,30.06,2.5,SW,6.9,-,0.02,Rain,Light Rain,220,2013-08-22 12:21:00
8:31 AM,71.6,69.8,94,30.06,4.0,SSW,4.6,-,0.02,Rain,Light Rain,210,2013-08-22 12:31:00
8:53 AM,71.1,69.1,93,30.04,7.0,SSW,4.6,-,0.02,Rain,Light Rain,210,2013-08-22 12:53:00
9:30 AM,71.6,69.8,94,30.04,2.0,SSW,8.1,-,0.04,Rain,Light Rain,200,2013-08-22 13:30:00
9:41 AM,71.6,68.0,88,30.05,3.0,SSW,9.2,-,0.06,Rain,Rain,200,2013-08-22 13:41:00
9:53 AM,70.0,68.0,93,30.04,4.0,South,4.6,-,0.08,Rain,Light Rain,190,2013-08-22 13:53:00
10:53 AM,73.9,69.1,85,30.04,10.0,SW,10.4,-,0.01,,Partly Cloudy,220,2013-08-22 14:53:00
11:07 AM,75.2,71.6,89,30.04,9.0,WSW,11.5,-,N/A,,Scattered Clouds,240,2013-08-22 15:07:00
11:17 AM,75.2,71.6,89,30.05,8.0,SW,16.1,20.7,N/A,,Mostly Cloudy,230,2013-08-22 15:17:00
11:53 AM,73.9,71.1,91,30.04,5.0,West,8.1,-,0.00,,Overcast,280,2013-08-22 15:53:00
12:11 PM,77.0,71.6,83,30.04,10.0,WNW,5.8,-,N/A,,Scattered Clouds,290,2013-08-22 16:11:00
12:53 PM,75.9,68.0,76,30.03,10.0,Calm,Calm,-,N/A,,Mostly Cloudy,0,2013-08-22 16:53:00
1:51 PM,77.0,71.6,83,30.01,10.0,SW,5.8,-,N/A,,Mostly Cloudy,220,2013-08-22 17:51:00
1:53 PM,75.9,71.1,85,30.01,10.0,SW,5.8,-,N/A,,Mostly Cloudy,220,2013-08-22 17:53:00
2:53 PM,75.9,71.1,85,29.98,8.0,SSW,9.2,-,N/A,,Overcast,200,2013-08-22 18:53:00
3:32 PM,75.2,69.8,83,29.97,7.0,SSW,9.2,16.1,N/A,,Mostly Cloudy,210,2013-08-22 19:32:00
3:53 PM,73.9,71.1,91,29.96,6.0,SSW,11.5,-,N/A,,Overcast,200,2013-08-22 19:53:00
4:53 PM,73.9,71.1,91,29.92,9.0,SSW,4.6,-,N/A,,Mostly Cloudy,210,2013-08-22 20:53:00
5:53 PM,73.9,70.0,87,29.92,10.0,SW,10.4,-,N/A,,Overcast,230,2013-08-22 21:53:00
6:34 PM,73.4,69.8,88,29.92,10.0,SW,9.2,-,N/A,,Overcast,230,2013-08-22 22:34:00
6:53 PM,73.9,69.1,85,29.92,10.0,WSW,6.9,-,N/A,,Overcast,240,2013-08-22 22:53:00
7:04 PM,73.4,68.0,83,29.92,10.0,WSW,10.4,-,N/A,,Scattered Clouds,240,2013-08-22 23:04:00
7:53 PM,71.1,66.9,87,29.91,10.0,SW,5.8,-,N/A,,Clear,220,2013-08-22 23:53:00
8:53 PM,71.1,68.0,90,29.93,10.0,SW,5.8,-,N/A,,Clear,220,2013-08-23 00:53:00
9:00 PM,71.6,69.8,94,29.93,10.0,SW,5.8,-,N/A,,Scattered Clouds,220,2013-08-23 01:00:00
9:11 PM,71.6,69.8,94,29.92,10.0,SW,5.8,-,N/A,,Mostly Cloudy,220,2013-08-23 01:11:00
9:34 PM,71.6,69.8,94,29.93,9.0,SW,5.8,-,N/A,,Overcast,220,2013-08-23 01:34:00
9:53 PM,72.0,70.0,93,29.92,8.0,SW,8.1,-,N/A,,Overcast,230,2013-08-23 01:53:00
10:53 PM,72.0,70.0,93,29.90,6.0,SW,9.2,-,N/A,,Overcast,230,2013-08-23 02:53:00
11:00 PM,71.6,69.8,94,29.90,6.0,WSW,9.2,-,N/A,,Overcast,240,2013-08-23 03:00:00
11:53 PM,71.1,70.0,96,29.89,6.0,SW,4.6,-,N/A,,Mostly Cloudy,220,2013-08-23 03:53:00